Regional Weather Roundup
Issued by NWS

Home | Current Version | Previous Version | Text Only | Print | Product List | Glossary Off
Versions: 1 2 3 4 5 6 7 8 9 10 11 12 13 14 15 16 17 18 19 20 21 22 23 24 25 26 27 28 29 30 31 32 33 34 35 36 37 38 39 40 41 42 43 44 45 46 47 48 49 50

459
ASUS44 KJAN 221310
RWRMS

MISSISSIPPI HOURLY WEATHER ROUNDUP
NATIONAL WEATHER SERVICE JACKSON MS
800 AM CDT FRI AUG 22 2014

NOTE: "FAIR: INDICATES FEW OR NO CLOUDS BELOW 12,000 FEET WITH NO
SIGNIFICANT WEATHER AND/OR OBSTRUCTIONS TO VISIBILITY.

MSZ001>002-007>008-010>013-018>021-025>028-034>036-221400-
NORTHWEST MISSISSIPPI

CITY           SKY/WX    TMP DP  RH WIND       PRES   REMARKS
CLARKSDALE     FAIR      75  75 100 CALM      30.11R
CLEVELAND      FAIR      75  73  96 SW5       30.10R
GREENWOOD      SUNNY     76  72  87 CALM      30.11R
GREENVILLE     SUNNY     76  73  91 SW3       30.09S
GRENADA        FAIR      73  70  88 CALM      30.11S
OLIVE BRANCH   MOSUNNY   75  75 100 S7        30.11R
OXFORD         FAIR      75  70  83 W3        30.13S
TUNICA         SUNNY     75  72  88 S6        30.10S
$$

MSZ003>006-009-014>017-022>024-029>033-037>039-221400-
NORTHEAST MISSISSIPPI

CITY           SKY/WX    TMP DP  RH WIND       PRES   REMARKS
BELMONT        FAIR      76  73  90 CALM      30.13R
COLUMBUS AFB   SUNNY     78  71  80 CALM      30.12R
CORINTH        FAIR      77  72  83 CALM      30.11R
GOLDN TRIANGLE SUNNY     79  70  73 CALM      30.13R
STARKVILLE     FAIR      77  70  78 CALM      30.12R
TUPELO         SUNNY     79  71  76 W5        30.11R
$$

MSZ040-058-221400-
CENTRAL MISSISSIPPI

CITY           SKY/WX    TMP DP  RH WIND       PRES   REMARKS
JACKSON INTL   MOSUNNY   77  73  87 CALM      30.13R
JACKSON HAWKNS SUNNY     78  72  81 W3        30.13R
MERIDIAN KEY   SUNNY     76  70  82 CALM      30.12R
MERIDIAN NAS   MOSUNNY   77  72  84 N5        30.12R
RAYMOND        FAIR      75  72  88 CALM      30.13R
VICKSBURG      SUNNY     75  73  93 CALM      30.11R
$$

MSZ059>079-221400-
SOUTH MISSISSIPPI

CITY           SKY/WX    TMP DP  RH WIND       PRES   REMARKS
BROOKHAVEN     FAIR      73  73 100 CALM      30.15R
COLUMBIA       FAIR      75  73  94 MISG      30.12R
HATTIESBURG    SUNNY     78  73  84 CALM      30.13R
MCCOMB         MOSUNNY   75  72  90 CALM      30.13S
NATCHEZ        SUNNY     75  73  94 S3        30.13S
PINE BELT      MOSUNNY   77  70  78 CALM      30.14R
$$

MSZ080>082-221400-
COASTAL MISSISSIPPI

CITY           SKY/WX    TMP DP  RH WIND       PRES   REMARKS
BAY ST LOUIS   SUNNY    N/A N/A N/A CALM      30.11S
BILOXI         SUNNY     81  74  80 N3        30.11R
PASCAGOULA     SUNNY     79  76  90 CALM      30.11R
GULFPORT       SUNNY     80  74  81 CALM      30.10S
$$



USA.gov is the U.S. government's official web portal to all federal, state and local government web resources and services.